Walterboro, SC

12:25 AM EST on December 16, 2019 (GMT -0500)
Lowcountry Regional

Weather History for KRBW - November, 2019

Change the Weather History Date:

Tuesday, November 12, 2019

  Actual Average Record
Temperature  
Mean Temperature 53 °F -  
Max Temperature 69 °F 69 °F 78 °F (2014)
Min Temperature 35 °F 44 °F 32 °F (2011)
Degree Days  
Heating Degree Days 12    
Growing Degree Days 3 (Base 50)    
Moisture  
Dew Point 48 °F    
Average Humidity 87    
Maximum Humidity 100    
Minimum Humidity 70    
Precipitation  
Precipitation 0.00 in - - ()
Sea Level Pressure  
Sea Level Pressure 29.99 in    
Wind  
Wind Speed 4 mph ()    
Max Wind Speed 17 mph    
Max Gust Speed 25 mph    
Visibility 9.4 miles    
Events Rain    
Averages and records for this station are not official NWS values.
T = Trace of Precipitation, MM = Missing Value Source: Averaged Metar Reports

Daily Weather History Graph

Daily Weather History Graph

Search for Another Location

Airport or City:

Astronomy

Nov. 12, 2019 Rise Set
Actual Time 6:50 AM EST 5:22 PM EST
Civil Twilight 6:23 AM EST 5:48 PM EST
Nautical Twilight 5:54 AM EST 6:18 PM EST
Astronomical Twilight 5:25 AM EST 6:47 PM EST
Moon 5:47 PM EST (11/12) 6:42 AM EST (11/12)
Length of Visible Light 11h 25m
Length of Day
10h 32m
Full, 100% of the Moon is Illuminated
Nov 12
Full
Nov 19
Last Quarter
Nov 26
New
Dec 4
First Quarter
Dec 12
Full

Hourly Weather History & Observations

Time (EST) Temp. Windchill Dew Point Humidity Pressure Visibility Wind Dir Wind Speed Gust Speed Precip Events Conditions
12:15 AM 46.4 °F - 44.6 °F 93% 30.04 in 10.0 mi Calm Calm - N/A   Clear
12:35 AM 48.2 °F - 46.4 °F 93% 30.04 in 10.0 mi Calm Calm - N/A   Clear
12:55 AM 48.2 °F - 46.4 °F 93% 30.03 in 10.0 mi Calm Calm - N/A   Clear
1:35 AM 48.2 °F - 46.4 °F 93% 30.01 in 10.0 mi Calm Calm - N/A   Clear
1:55 AM 50.0 °F - 46.4 °F 87% 30.00 in 10.0 mi Calm Calm - N/A   Clear
2:15 AM 48.2 °F - 46.4 °F 93% 29.99 in 10.0 mi Calm Calm - N/A   Clear
2:35 AM 48.2 °F - 46.4 °F 93% 29.98 in 10.0 mi Calm Calm - N/A   Clear
2:55 AM 46.4 °F - 44.6 °F 93% 29.97 in 10.0 mi Calm Calm - N/A   Clear
3:15 AM 48.2 °F - 46.4 °F 93% 29.96 in 10.0 mi Calm Calm - N/A   Clear
3:35 AM 48.2 °F - 46.4 °F 93% 29.95 in 10.0 mi Calm Calm - N/A   Clear
3:55 AM 50.0 °F - 46.4 °F 87% 29.94 in 10.0 mi Calm Calm - N/A   Clear
4:15 AM 50.0 °F - 46.4 °F 87% 29.93 in 10.0 mi Calm Calm - N/A   Clear
4:35 AM 50.0 °F - 46.4 °F 87% 29.92 in 10.0 mi Calm Calm - N/A   Clear
4:55 AM 50.0 °F - 46.4 °F 87% 29.91 in 10.0 mi Calm Calm - N/A   Clear
5:15 AM 48.2 °F - 46.4 °F 93% 29.90 in 10.0 mi Calm Calm - N/A   Clear
5:35 AM 48.2 °F - 46.4 °F 93% 29.91 in 10.0 mi Calm Calm - N/A   Clear
5:55 AM 48.2 °F - 46.4 °F 93% 29.91 in 10.0 mi Calm Calm - N/A   Clear
6:15 AM 48.2 °F - 46.4 °F 93% 29.91 in 10.0 mi Calm Calm - N/A   Clear
6:35 AM 50.0 °F - 46.4 °F 87% 29.91 in 10.0 mi Calm Calm - N/A   Clear
7:15 AM 50.0 °F - 48.2 °F 94% 29.92 in 10.0 mi Calm Calm - N/A   Clear
7:35 AM 51.8 °F - 50.0 °F 94% 29.93 in 10.0 mi Calm Calm - N/A   Scattered Clouds
7:55 AM 53.6 °F - 53.6 °F 100% 29.93 in 10.0 mi Calm Calm - N/A   Mostly Cloudy
8:15 AM 55.4 °F - 55.4 °F 100% 29.93 in 10.0 mi SSW 4.6 mph - N/A   Scattered Clouds
8:35 AM 59.0 °F - 57.2 °F 94% 29.93 in 10.0 mi SW 6.9 mph - N/A   Clear
8:55 AM 60.8 °F - 57.2 °F 88% 29.93 in 10.0 mi SW 6.9 mph - N/A   Clear
9:15 AM 62.6 °F - 59.0 °F 88% 29.93 in 10.0 mi SW 6.9 mph - N/A   Clear
9:35 AM 62.6 °F - 59.0 °F 88% 29.93 in 10.0 mi WSW 5.8 mph - N/A   Clear
9:55 AM 64.4 °F - 59.0 °F 83% 29.93 in 10.0 mi WSW 9.2 mph - N/A   Clear
10:15 AM 64.4 °F - 59.0 °F 83% 29.93 in 10.0 mi SW 5.8 mph - N/A   Clear
10:35 AM 68.0 °F - 60.8 °F 78% 29.92 in 10.0 mi WSW 9.2 mph - N/A   Scattered Clouds
10:55 AM 69.8 °F - 60.8 °F 73% 29.92 in 10.0 mi West 8.1 mph - N/A   Mostly Cloudy
11:15 AM 69.8 °F - 60.8 °F 73% 29.91 in 10.0 mi WSW 8.1 mph - N/A   Mostly Cloudy
11:35 AM 68.0 °F - 60.8 °F 78% 29.90 in 10.0 mi West 10.4 mph - N/A   Mostly Cloudy
11:55 AM 68.0 °F - 60.8 °F 78% 29.90 in 10.0 mi WSW 9.2 mph - N/A   Overcast
12:15 PM 66.2 °F - 60.8 °F 83% 29.89 in 10.0 mi NW 5.8 mph - N/A Rain Light Rain
12:35 PM 64.4 °F - 62.6 °F 94% 29.88 in 10.0 mi WNW 8.1 mph - N/A Rain Light Rain
12:55 PM 64.4 °F - 60.8 °F 88% 29.88 in 10.0 mi West 10.4 mph 16.1 mph N/A Rain Light Rain
1:15 PM 62.6 °F - 60.8 °F 94% 29.87 in 5.0 mi West 6.9 mph - N/A Rain Rain
1:35 PM 62.6 °F - 60.8 °F 94% 29.87 in 5.0 mi WNW 6.9 mph - N/A Rain Rain
1:55 PM 62.6 °F - 60.8 °F 94% 29.88 in 4.0 mi NW 6.9 mph - N/A Rain Rain
2:15 PM 60.8 °F - 59.0 °F 94% 29.88 in 5.0 mi NW 11.5 mph 19.6 mph N/A Rain Rain
2:35 PM 60.8 °F - 59.0 °F 94% 29.88 in 4.0 mi NW 5.8 mph - N/A Rain Rain
2:55 PM 60.8 °F - 59.0 °F 94% 29.89 in 7.0 mi WNW 8.1 mph - N/A Rain Light Rain
3:15 PM 59.0 °F - 57.2 °F 94% 29.90 in 5.0 mi North 12.7 mph 18.4 mph N/A Rain Rain
3:35 PM 55.4 °F - 53.6 °F 94% 29.92 in 7.0 mi North 12.7 mph 18.4 mph N/A Rain Rain
3:55 PM 53.6 °F - 51.8 °F 94% 29.95 in 10.0 mi North 17.3 mph 24.2 mph N/A Rain Light Rain
4:15 PM 50.0 °F - 46.4 °F 87% 29.96 in 10.0 mi NNE 10.4 mph 21.9 mph N/A Rain Light Rain
4:35 PM 48.2 °F - 46.4 °F 93% 29.98 in 10.0 mi NNE 15.0 mph 24.2 mph N/A Rain Light Rain
4:55 PM 46.4 °F 41.1 °F 44.6 °F 93% 30.00 in 10.0 mi North 11.5 mph 20.7 mph N/A Rain Light Rain
5:15 PM 44.6 °F 38.1 °F 41.0 °F 87% 30.01 in 10.0 mi NNE 13.8 mph 25.3 mph N/A Rain Light Rain
5:35 PM 42.8 °F 36.6 °F 39.2 °F 87% 30.03 in 10.0 mi North 11.5 mph 21.9 mph N/A   Overcast
5:55 PM 42.8 °F 37.0 °F 39.2 °F 87% 30.05 in 10.0 mi North 10.4 mph 19.6 mph N/A   Overcast
6:15 PM 42.8 °F 36.6 °F 37.4 °F 81% 30.06 in 10.0 mi North 11.5 mph 17.3 mph N/A   Overcast
6:35 PM 42.8 °F 36.2 °F 37.4 °F 81% 30.07 in 10.0 mi NNW 12.7 mph 19.6 mph N/A   Overcast
6:55 PM 42.8 °F 37.0 °F 35.6 °F 76% 30.08 in 10.0 mi North 10.4 mph 18.4 mph N/A   Overcast
7:15 PM 42.8 °F 37.5 °F 35.6 °F 76% 30.10 in 10.0 mi North 9.2 mph 17.3 mph N/A   Overcast
7:35 PM 42.8 °F 37.0 °F 35.6 °F 76% 30.11 in 10.0 mi North 10.4 mph 16.1 mph N/A   Overcast
7:55 PM 42.8 °F 38.0 °F 35.6 °F 76% 30.11 in 10.0 mi North 8.1 mph - N/A   Overcast
8:15 PM 42.8 °F 37.0 °F 35.6 °F 76% 30.12 in 10.0 mi North 10.4 mph 18.4 mph N/A   Overcast
8:35 PM 42.8 °F 37.5 °F 33.8 °F 70% 30.14 in 10.0 mi North 9.2 mph - N/A   Overcast
8:55 PM 41.0 °F 37.1 °F 33.8 °F 76% 30.14 in 10.0 mi North 5.8 mph - N/A   Overcast
9:15 PM 41.0 °F 35.8 °F 35.6 °F 81% 30.16 in 10.0 mi NNE 8.1 mph - N/A   Overcast
9:35 PM 41.0 °F 35.8 °F 33.8 °F 76% 30.16 in 10.0 mi North 8.1 mph - N/A   Scattered Clouds
9:55 PM 41.0 °F 38.0 °F 33.8 °F 76% 30.17 in 10.0 mi North 4.6 mph - N/A   Clear
10:15 PM 39.2 °F 37.0 °F 33.8 °F 81% 30.19 in 10.0 mi North 3.5 mph - N/A   Scattered Clouds
10:35 PM 37.4 °F 34.9 °F 33.8 °F 87% 30.19 in 10.0 mi NNW 3.5 mph - N/A   Mostly Cloudy
10:55 PM 37.4 °F 29.3 °F 32.0 °F 81% 30.19 in 10.0 mi North 12.7 mph 18.4 mph N/A   Scattered Clouds
11:15 PM 37.4 °F 30.8 °F 32.0 °F 81% 30.20 in 10.0 mi North 9.2 mph - N/A   Clear
11:55 PM 35.6 °F 28.6 °F 26.6 °F 70% 30.21 in 10.0 mi North 9.2 mph 20.7 mph N/A   Clear